TimeCDT,TemperatureF,Dew PointF,Humidity,Sea Level PressureIn,VisibilityMPH,Wind Direction,Wind SpeedMPH,Gust SpeedMPH,PrecipitationIn,Events,Conditions,WindDirDegrees,DateUTC
12:15 AM,41.9,41.5,99,29.93,2.0,NW,6.9,-,N/A,,Overcast,320,2013-05-11 05:15:00
12:35 AM,41.9,41.7,99,29.93,2.0,NNW,9.2,-,N/A,,Overcast,330,2013-05-11 05:35:00
12:55 AM,42.1,41.9,99,29.94,4.0,NNW,8.1,-,N/A,,Overcast,330,2013-05-11 05:55:00
1:15 AM,42.1,41.9,99,29.94,3.0,NW,9.2,-,N/A,,Overcast,320,2013-05-11 06:15:00
1:35 AM,42.1,41.9,99,29.94,2.5,NW,8.1,-,N/A,,Overcast,310,2013-05-11 06:35:00
1:55 AM,42.1,41.9,99,29.94,2.5,NW,9.2,-,N/A,,Overcast,320,2013-05-11 06:55:00
2:15 AM,42.1,41.9,99,29.94,2.5,NW,9.2,-,N/A,,Overcast,310,2013-05-11 07:15:00
2:35 AM,42.1,41.9,99,29.95,4.0,WNW,5.8,-,N/A,,Overcast,300,2013-05-11 07:35:00
2:55 AM,42.1,41.9,99,29.95,4.0,WNW,6.9,-,N/A,,Overcast,290,2013-05-11 07:55:00
3:15 AM,42.3,42.1,99,29.95,4.0,WNW,4.6,-,N/A,,Overcast,290,2013-05-11 08:15:00
3:35 AM,42.4,42.1,99,29.95,4.0,WNW,8.1,-,N/A,,Overcast,300,2013-05-11 08:35:00
3:55 AM,42.4,42.1,99,29.95,3.0,WNW,5.8,-,N/A,,Overcast,290,2013-05-11 08:55:00
4:15 AM,42.8,42.4,99,29.95,4.0,West,4.6,-,N/A,,Overcast,280,2013-05-11 09:15:00
4:35 AM,43.0,42.8,99,29.94,4.0,WNW,6.9,-,N/A,,Overcast,290,2013-05-11 09:35:00
4:55 AM,43.2,42.8,99,29.94,4.0,West,4.6,-,N/A,,Overcast,270,2013-05-11 09:55:00
5:35 AM,43.7,43.3,99,29.93,5.0,West,4.6,-,N/A,,Overcast,270,2013-05-11 10:35:00
5:55 AM,43.5,43.2,99,29.93,7.0,West,8.1,-,N/A,,Overcast,280,2013-05-11 10:55:00
6:15 AM,43.3,43.0,99,29.93,10.0,West,6.9,-,N/A,,Overcast,270,2013-05-11 11:15:00
6:35 AM,43.5,42.8,97,29.93,10.0,WNW,5.8,-,N/A,,Overcast,290,2013-05-11 11:35:00
6:55 AM,43.3,42.6,97,29.93,10.0,WNW,8.1,-,N/A,,Overcast,300,2013-05-11 11:55:00
7:15 AM,43.3,42.6,97,29.93,10.0,WNW,9.2,-,N/A,,Overcast,300,2013-05-11 12:15:00
7:35 AM,43.3,42.6,97,29.92,5.0,WNW,5.8,-,N/A,,Overcast,290,2013-05-11 12:35:00
7:55 AM,43.9,43.0,97,29.92,5.0,WNW,4.6,-,N/A,,Overcast,290,2013-05-11 12:55:00
8:15 AM,44.4,43.3,96,29.91,4.0,WNW,4.6,-,N/A,,Overcast,290,2013-05-11 13:15:00
8:35 AM,45.0,43.9,96,29.91,5.0,Calm,Calm,-,N/A,,Overcast,0,2013-05-11 13:35:00
8:55 AM,45.9,44.6,95,29.91,5.0,SW,5.8,-,N/A,,Overcast,230,2013-05-11 13:55:00
9:15 AM,46.6,45.1,95,29.92,5.0,West,5.8,-,N/A,,Overcast,270,2013-05-11 14:15:00
9:35 AM,47.3,45.7,94,29.90,5.0,West,6.9,-,N/A,,Overcast,260,2013-05-11 14:35:00
9:55 AM,48.2,46.2,93,29.90,5.0,WSW,9.2,-,N/A,,Overcast,250,2013-05-11 14:55:00
10:15 AM,48.7,46.4,92,29.91,5.0,SW,9.2,-,N/A,,Overcast,230,2013-05-11 15:15:00
10:35 AM,49.5,46.6,90,29.90,7.0,SW,10.4,-,N/A,,Overcast,230,2013-05-11 15:35:00
11:15 AM,51.4,47.8,87,29.88,7.0,SSW,11.5,-,N/A,,Overcast,200,2013-05-11 16:15:00
11:35 AM,52.0,48.0,86,29.87,7.0,SSW,11.5,-,N/A,,Overcast,210,2013-05-11 16:35:00
11:55 AM,52.9,48.4,85,29.86,10.0,SW,10.4,-,N/A,,Mostly Cloudy,220,2013-05-11 16:55:00
12:15 PM,55.0,49.8,83,29.85,10.0,SSW,12.7,16.1,N/A,,Mostly Cloudy,200,2013-05-11 17:15:00
12:35 PM,55.6,49.8,81,29.85,10.0,SW,12.7,-,N/A,,Overcast,230,2013-05-11 17:35:00
12:55 PM,55.0,49.5,81,29.85,10.0,WSW,10.4,-,N/A,,Overcast,240,2013-05-11 17:55:00
1:15 PM,54.7,49.8,84,29.85,10.0,SW,13.8,-,N/A,,Overcast,220,2013-05-11 18:15:00
1:35 PM,54.5,50.2,85,29.85,10.0,SW,13.8,17.3,N/A,,Overcast,220,2013-05-11 18:35:00
1:55 PM,55.2,50.9,85,29.85,10.0,WSW,10.4,-,N/A,,Overcast,240,2013-05-11 18:55:00
2:35 PM,59.5,52.9,79,29.83,10.0,WSW,15.0,-,N/A,,Mostly Cloudy,240,2013-05-11 19:35:00
2:55 PM,56.3,50.0,79,29.87,3.0,NNW,34.5,41.4,N/A,,Overcast,340,2013-05-11 19:55:00
3:15 PM,49.8,44.4,82,29.88,10.0,NNW,32.2,36.8,N/A,,Mostly Cloudy,340,2013-05-11 20:15:00
3:35 PM,50.9,44.4,78,29.88,10.0,North,29.9,35.7,N/A,,Scattered Clouds,360,2013-05-11 20:35:00
3:55 PM,49.8,42.3,75,29.89,10.0,North,23.0,32.2,N/A,,Scattered Clouds,360,2013-05-11 20:55:00
4:15 PM,48.7,40.6,74,29.90,10.0,North,19.6,25.3,N/A,,Mostly Cloudy,360,2013-05-11 21:15:00
4:35 PM,50.7,41.4,70,29.90,10.0,North,20.7,26.5,N/A,,Scattered Clouds,360,2013-05-11 21:35:00
4:55 PM,51.1,41.2,69,29.91,10.0,North,17.3,25.3,N/A,,Clear,350,2013-05-11 21:55:00
5:15 PM,51.1,40.3,67,29.91,10.0,North,17.3,23.0,N/A,,Scattered Clouds,350,2013-05-11 22:15:00
5:35 PM,50.9,39.6,65,29.92,10.0,NNW,19.6,-,N/A,,Mostly Cloudy,340,2013-05-11 22:35:00
5:55 PM,50.0,38.7,65,29.93,10.0,North,19.6,-,N/A,,Mostly Cloudy,350,2013-05-11 22:55:00
6:15 PM,48.7,37.9,66,29.94,10.0,North,13.8,-,N/A,,Mostly Cloudy,350,2013-05-11 23:15:00
6:35 PM,48.0,37.2,66,29.94,10.0,North,16.1,-,N/A,,Overcast,360,2013-05-11 23:35:00
6:55 PM,47.7,35.4,63,29.95,10.0,North,10.4,-,N/A,,Overcast,350,2013-05-11 23:55:00
7:15 PM,47.3,35.6,64,29.96,10.0,NNW,9.2,-,N/A,,Overcast,340,2013-05-12 00:15:00
7:35 PM,47.3,36.3,66,29.97,10.0,NNW,10.4,-,N/A,,Overcast,340,2013-05-12 00:35:00
7:55 PM,46.8,34.9,63,29.98,10.0,NNW,15.0,20.7,N/A,,Overcast,340,2013-05-12 00:55:00
8:15 PM,45.1,34.2,65,29.98,10.0,NNW,9.2,-,N/A,,Mostly Cloudy,340,2013-05-12 01:15:00
8:35 PM,43.2,34.9,73,29.99,10.0,NW,4.6,-,N/A,,Clear,320,2013-05-12 01:35:00
8:55 PM,43.0,35.4,75,29.99,10.0,WNW,3.5,-,N/A,,Clear,290,2013-05-12 01:55:00
9:15 PM,42.8,35.4,75,29.99,10.0,WNW,3.5,-,N/A,,Clear,290,2013-05-12 02:15:00
9:35 PM,42.1,35.6,78,30.00,10.0,West,4.6,-,N/A,,Clear,270,2013-05-12 02:35:00
9:55 PM,41.0,36.1,83,30.01,10.0,WNW,3.5,-,N/A,,Scattered Clouds,300,2013-05-12 02:55:00
10:15 PM,40.5,36.7,86,30.01,10.0,Calm,Calm,-,N/A,,Scattered Clouds,0,2013-05-12 03:15:00
10:35 PM,40.1,37.0,89,30.01,10.0,West,4.6,-,N/A,,Clear,260,2013-05-12 03:35:00
10:55 PM,39.9,36.3,87,30.01,10.0,Calm,Calm,-,N/A,,Clear,0,2013-05-12 03:55:00
11:15 PM,38.7,35.8,89,30.01,10.0,West,4.6,-,N/A,,Clear,270,2013-05-12 04:15:00
11:35 PM,39.0,36.5,91,30.01,10.0,West,3.5,-,N/A,,Clear,270,2013-05-12 04:35:00
11:55 PM,38.5,36.5,93,30.01,10.0,WSW,5.8,-,N/A,,Clear,240,2013-05-12 04:55:00